Location: Indian Hills
(32.9760°N, 85.9450°W)
Time: 03:17:13
(UTC+00:00)

Cosmos 1655 Rocket - Pass Details

Date: 09 December 2019
Orbit: 970 x 1006 km, 83.0° (Epoch: 25 January)

Event Time Altitude Azimuth Distance (km) Brightness Sun altitude
Rises 00:23:57 0° 176° (S) 3,707 7.2 -21.8°
Reaches altitude 10° 00:26:29 10° 174° (S) 2,757 6.4 -22.4°
Maximum altitude 00:32:45 67° 93° (E) 1,072 3.9 -23.6°
Enters shadow 00:36:02 29° 19° (NNE) 1,713 5.0 -24.3°
